GSAT0212 (GALILEO 16)

Last updated on Sun Apr 12 2026 00:02:39 GMT+0000 (Coordinated Universal Time)

1 41860U 16069B 26100.14172031 .00000054 00000+0 00000+0 0 9996 2 41860 55.4527 102.9624 0004464 337.4113 22.5943 1.70474473 58491
UTC large
Height (km)
Speed (km/s)
/
Latitude / Longitude
Inclination (degrees)
Orbital Period (minutes)
Azimuth
Elevation
Range (km)
Doppler Factor

Next 0 passes for location: London (51.5072 / 0.1276)

Sorry there are no passes over London.